Weather in El Paso

United States     31°45′32″N   106°29′12″W
В апреле 2022 года жителям России запретили посещать сайт meteo.paraplan.net по решению Генеральной прокуратуры. Аудитория сайта уменьшилась в 10 раз. Владельцы сайта не видят смысла в поддержке погодного сервера в таких условиях. Сайт будет закрыт в октябре.
temp.,
°C
wind,
m/s
gust,
m/s
humid.,
%
clouds,
%
prec.,
mm/h
press.,
hPa
HPBL,
m
4 october, tue
tue401:00+21se4642100 1.1 1016383
04:00+20ese23465 0.0 1015256
07:00+20ese23485 0.0 1015224
10:00+21ese34451 0.1 1016470
13:00+24se23383 0.2 10151226
16:00+26sw133132 0.0 10122275
19:00+27ssw112929 0.0 10102444
22:00+22ssw775071 1.0 1014468
5 october, wed
wed501:00+21w345598 1.9 1016611
04:00+19ene346580 0.9 1015371
07:00+19se236396 1.3 1015425
10:00+20se345795 0.1 1017524
13:00+23sse234533 0.1 10161230
16:00+25s123493 0.0 10132570
19:00+24se543876 0.2 10131425
22:00+21e674640 1.4 1016669
6 october, thu
thu601:00+19ese3559100 2.6 1018601
04:00+16se2479100 4.2 1019411
07:00+17ne3473100 12.7 1019450
10:00+17e2466100 0.4 1021547
13:00+16nnw1178100 5.0 1022262
16:00+16wnw3376100 3.4 1020321
19:00+17e2273100 7.3 1020351
22:00+16e41273100 0.4 1021697
7 october, fri
fri701:00+16ese51178100 1.3 1022715
04:00+16nne4667100 1.7 1021342
07:00+17e486586 1.8 1021662
10:00+17ese2565100 1.1 1023516
13:00+21ese7947100 1.4 10211405
16:00+21ese2641100 0.4 10181236
19:00+23ese8103599 0.4 10171649
22:00+19se7124997 0.0 1021895
8 october, sat
sat801:00+18e61154100 0.0 1021813
04:00+18ene4855100 0.1 1020518
07:00+18e475387 0.1 1020651
10:00+19e585171 0.3 1022831
13:00+22ese56406 1.0 10201502
16:00+24se553588 0.0 10162298
19:00+19ne465966 0.9 1017281
22:00+18s8966100 2.4 1019826